This demonstration page uses our WeatherBlox Daily Observations layout. Learn more.

Left ArrowRight Arrow

Hourly Observations for August 8, 2022

Temp ( °F °C ) Dew Point ( °F °C ) Humidity (%) Winds ( mph kmh ) Pressure ( in mb ) Visibility ( mi km ) Precip ( " mm )
12:59 am 00:59 Clear 80 26.7 71 21.7 74 74 SSW 8 13 30.17 1022 10 16 0.00 0.00
1:59 am 01:59 Clear 80 26.7 71 21.7 74 74 SSW 7 11 30.16 1021 10 16 0.00 0.00
2:59 am 02:59 Clear 79 26.1 71 21.7 77 77 S 10 17 30.14 1021 10 16 0.00 0.00
3:59 am 03:59 Clear 78 25.6 72 22.2 82 82 SSW 7 11 30.14 1021 10 16 0.00 0.00
4:59 am 04:59 Clear 78 25.6 72 22.2 82 82 SSW 7 11 30.13 1020 10 16 0.00 0.00
5:59 am 05:59 Mostly Clear 78 25.6 72 22.2 82 82 SSW 8 13 30.14 1021 10 16 0.00 0.00
6:59 am 06:59 Mostly Sunny 78 25.6 72 22.2 82 82 SSW 7 11 30.15 1021 10 16 0.00 0.00
7:59 am 07:59 Mostly Sunny 79 26.1 72 22.2 79 79 VRB 7 11 30.15 1021 10 16 0.00 0.00
8:59 am 08:59 Mostly Sunny 80 26.7 73 22.8 79 79 SW 12 19 30.14 1021 10 16 0.00 0.00
9:59 am 09:59 Mostly Sunny 83 28.3 73 22.8 72 72 SW 9 15 30.14 1021 10 16 0.00 0.00
10:59 am 10:59 Partly Cloudy 87 30.6 73 22.8 63 63 SW 9 15 30.13 1020 10 16 0.00 0.00
11:59 am 11:59 Partly Cloudy 90 32.2 73 22.8 58 58 SW 9 15 30.12 1020 10 16 0.00 0.00
12:59 pm 12:59 Partly Cloudy 91 32.8 74 23.3 58 58 WSW 9 15 30.11 1020 10 16 0.00 0.00
1:59 pm 13:59 Mostly Cloudy 92 33.3 77 25 62 62 SSW 10 17 30.09 1019 10 16 0.00 0.00
2:59 pm 14:59 Mostly Cloudy 92 33.3 77 25 62 62 SSW 9 15 30.07 1018 10 16 0.00 0.00
3:59 pm 15:59 Mostly Cloudy 91 32.8 71 21.7 52 52 SSW 9 15 30.05 1018 10 16 0.00 0.00
4:59 pm 16:59 Mostly Cloudy 91 32.8 72 22.2 54 54 SSW 8 13 30.03 1017 10 16 0.00 0.00
5:59 pm 17:59 Mostly Cloudy 90 32.2 71 21.7 54 54 SW 9 15 30.02 1017 10 16 0.00 0.00
6:59 pm 18:59 Mostly Sunny 89 31.7 70 21.1 54 54 S 7 11 30.02 1017 10 16 0.00 0.00
7:59 pm 19:59 Mostly Sunny 89 31.7 70 21.1 54 54 SSW 10 17 30.03 1017 10 16 0.00 0.00
8:59 pm 20:59 Mostly Clear 88 31.1 71 21.7 57 57 SSW 10 17 30.02 1017 10 16 0.00 0.00
9:59 pm 21:59 Clear 85 29.4 73 22.8 68 68 SSW 13 20 30.04 1017 10 16 0.00 0.00
10:59 pm 22:59 Clear 84 28.9 73 22.8 70 70 SSW 8 13 30.05 1018 10 16 0.00 0.00
11:59 pm 23:59 Clear 83 28.3 73 22.8 72 72 SSW 9 15 30.06 1018 10 16 0.00 0.00

Powered by AerisWeather